BEIDOU-3 M25

Last updated on Fri Oct 04 2024 00:03:14 GMT+0000 (Coordinated Universal Time)

1 58654U 23207A 24276.96893414 .00000008 00000+0 00000+0 0 9993 2 58654 55.2015 83.3927 0000564 194.4061 165.6191 1.86232291 5255

Satellite not in orbit

BEIDOU-3 M25